Main page
METAR-TAF:

METAR-TAF

Airports :

Kharg Airport

Kharg Island, Iran

latitude: 29-15-34N, longitude: 50-19-24E, elevation: 5 m

Current weather observation

The report was made 10 hours and 13 minutes ago, at 15:00 UTC
Wind 6 kt from the Southeast
Temperature 20°C
Humidity 83%
Pressure 1017 hPa
Visibility: 6000 m
Scattered clouds at a height of 3500 ft
Overcast at a height of 10000 ft

METAR: OIBQ 171500Z 13006KT 6000 SCT035 OVC100 20/17 Q1017

Time: 04:43 (01:13 UTC)


TAF: missing

Weather observations and forecasts of more than 4000 airports (METAR and TAF reports).

The available stations are represented by yellow and red dots on the map.

Hover mouse over dot to see the name of the station.

Then click to see weather observations and forecasts.

To change the map : click on the green buttons with a black cross to zoom in, on the green button with a dash to zoom out, or on the green arrows for adjacent maps.


METAR-TAF: